Weather History for KAZO - July, 2014

Change the Weather History Date:

Tuesday, July 22, 2014

  Actual Average Record
Temperature  
Mean Temperature 76 °F 73 °F  
Max Temperature 88 °F 83 °F 97 °F (1983)
Min Temperature 63 °F 62 °F 51 °F (1966)
Degree Days  
Heating Degree Days 0 0  
Month to date heating degree days 14 0  
Since 1 June heating degree days 33 48  
Since 1 July heating degree days 14 0  
Cooling Degree Days 11 8  
Month to date cooling degree days 90 173  
Year to date cooling degree days 324 359  
Since 1 June cooling degree days 270 318  
Growing Degree Days 26 (Base 50)    
Moisture  
Dew Point 66 °F    
Average Humidity 72    
Maximum Humidity 93    
Minimum Humidity 50    
Precipitation  
Precipitation T in 0.13 in 3.67 in (1951)
Month to date precipitation 2.77 2.61  
Year to date precipitation 15.06 18.63  
Sea Level Pressure  
Sea Level Pressure 30.02 in    
Wind  
Wind Speed 9 mph (SSW)    
Max Wind Speed 28 mph    
Max Gust Speed 35 mph    
Visibility 10 miles    
Events      
T = Trace of Precipitation, MM = Missing Value Source: NWS Daily Summary

Daily Weather History Graph

Daily Weather History Graph

Search for Another Location

Airport or City:

Trip Planner

Search our weather history database for the weather conditions in past years. The results will help you decide how hot, cold, wet, or windy it might be!

Date:

Astronomy

Jul. 22, 2014 Rise Set
Actual Time 6:25 AM EDT 9:11 PM EDT
Civil Twilight 5:52 AM EDT 9:44 PM EDT
Nautical Twilight 5:11 AM EDT 10:25 PM EDT
Astronomical Twilight 4:23 AM EDT 11:12 PM EDT
Moon 2:58 AM EDT (7/22) 5:48 PM EDT (7/22)
Length of Visible Light 15h 51m
Length of Day
14h 46m
Waning Crescent, 16% of the Moon is Illuminated
Jul 22
Waning Crescent
Jul 26
New
Aug 3
First Quarter
Aug 10
Full
Aug 17
Last Quarter

Hourly Weather History & Observations

Time (EDT) Temp. Heat Index Dew Point Humidity Pressure Visibility Wind Dir Wind Speed Gust Speed Precip Events Conditions
12:53 AM 70.0 °F - 64.0 °F 81% 30.08 in 10.0 mi Calm Calm - N/A   Clear
1:53 AM 68.0 °F - 63.0 °F 84% 30.08 in 10.0 mi Calm Calm - N/A   Clear
2:53 AM 66.0 °F - 63.0 °F 90% 30.07 in 10.0 mi SSE 3.5 mph - N/A   Clear
3:53 AM 66.0 °F - 63.0 °F 90% 30.08 in 10.0 mi Calm Calm - N/A   Clear
4:53 AM 64.0 °F - 62.1 °F 93% 30.08 in 9.0 mi SSE 4.6 mph - N/A   Clear
5:53 AM 66.9 °F - 64.0 °F 90% 30.08 in 10.0 mi SSE 4.6 mph - N/A   Clear
6:53 AM 66.9 °F - 63.0 °F 87% 30.09 in 9.0 mi South 3.5 mph - N/A   Clear
7:53 AM 69.1 °F - 64.0 °F 84% 30.10 in 10.0 mi South 3.5 mph - N/A   Clear
8:53 AM 73.0 °F - 64.9 °F 76% 30.09 in 10.0 mi South 6.9 mph - N/A   Clear
9:53 AM 77.0 °F - 64.4 °F 65% 30.08 in 10.0 mi South 9.2 mph - N/A   Clear
10:53 AM 81.0 °F 83.3 °F 66.9 °F 62% 30.04 in 10.0 mi SSW 13.8 mph 18.4 mph N/A   Clear
11:53 AM 82.0 °F 84.1 °F 66.0 °F 58% 30.02 in 10.0 mi South 12.7 mph - N/A   Clear
12:53 PM 84.9 °F 87.6 °F 66.9 °F 55% 30.03 in 10.0 mi SSW 12.7 mph - N/A   Clear
1:53 PM 84.9 °F 87.6 °F 66.9 °F 55% 30.02 in 10.0 mi SSW 15.0 mph - N/A   Partly Cloudy
2:53 PM 84.9 °F 87.6 °F 66.9 °F 55% 30.01 in 10.0 mi SW 12.7 mph - N/A   Scattered Clouds
3:53 PM 87.8 °F 91.4 °F 68.0 °F 52% 30.00 in 10.0 mi South 12.7 mph - N/A   Clear
4:53 PM 87.1 °F 89.9 °F 66.9 °F 51% 29.97 in 10.0 mi South 15.0 mph - N/A   Clear
5:53 PM 87.1 °F 90.6 °F 68.0 °F 53% 29.94 in 10.0 mi South 17.3 mph - N/A   Clear
6:53 PM 86.0 °F 89.4 °F 68.0 °F 55% 29.95 in 10.0 mi SSW 16.1 mph - N/A   Clear
7:53 PM 84.0 °F 87.8 °F 69.1 °F 61% 29.96 in 10.0 mi SW 8.1 mph - N/A   Scattered Clouds
8:53 PM 82.0 °F 85.5 °F 69.1 °F 65% 29.94 in 10.0 mi SSW 9.2 mph - N/A   Mostly Cloudy
9:53 PM 81.0 °F 84.1 °F 69.1 °F 67% 29.94 in 10.0 mi SSW 8.1 mph - N/A   Overcast
10:53 PM 80.1 °F 82.9 °F 69.1 °F 69% 29.95 in 10.0 mi SW 9.2 mph - N/A   Mostly Cloudy
11:53 PM 79.0 °F - 69.1 °F 72% 29.96 in 10.0 mi WSW 6.9 mph - N/A   Partly Cloudy